Location: Easthampton
(42.2676°N, 72.6690°W)
Time: 07:29:53
(UTC+00:00)

UKube-1 - Visible Passes

Search period start: 19 April 2024 00:00
Search period end: 29 April 2024 00:00
Orbit: 588 x 591 km, 98.3° (Epoch: 18 April)

Date Brightness Start Highest point End Pass type
(mag) Time Alt. Az. Time Alt. Az. Time Alt. Az.
19 Apr ? 06:13:12 10° N 06:14:39 21° N 06:14:39 21° N visible
20 Apr ? 06:21:12 10° N 06:22:46 21° N 06:22:46 21° N visible
21 Apr ? 06:29:12 10° N 06:30:51 21° NNW 06:30:51 21° NNW visible
22 Apr ? 05:02:01 10° NE 05:02:22 12° NE 05:02:22 12° NE visible
22 Apr ? 06:37:13 10° N 06:38:54 20° NNW 06:38:54 20° NNW visible
23 Apr ? 05:09:40 10° NE 05:10:23 14° NE 05:10:23 14° NE visible
23 Apr ? 06:45:13 10° NNW 06:46:55 19° NNW 06:46:55 19° NNW visible
24 Apr ? 05:17:21 10° NNE 05:18:24 16° NE 05:18:24 16° NE visible
24 Apr ? 06:53:15 10° NNW 06:54:56 17° NW 06:54:56 17° NW visible
25 Apr ? 05:25:02 10° NNE 05:26:22 19° NE 05:26:22 19° NE visible
25 Apr ? 07:01:19 10° NNW 07:02:54 16° NW 07:02:54 16° NW visible
26 Apr ? 05:32:43 10° NNE 05:34:20 22° NNE 05:34:20 22° NNE visible
26 Apr ? 07:09:26 10° NNW 07:10:51 14° NW 07:10:51 14° NW visible
27 Apr ? 05:40:25 10° NNE 05:42:15 25° NNE 05:42:15 25° NNE visible
27 Apr ? 07:17:39 10° NW 07:18:47 12° NW 07:18:47 12° NW visible
28 Apr ? 05:48:07 10° NNE 05:50:09 28° NNE 05:50:09 28° NNE visible
28 Apr ? 07:26:13 10° NW 07:26:41 10° NW 07:26:41 10° NW visible
